Temp
82 84 82 75 65 61 60 63 71 68 69 74 78 74 70 72 68 57 73 77 78 77 79 81 82 83 83 82 82 83 83 83 83 83 83 83 83 83 83 83 83 83 83 83 83 83 83 83 83
85 86 79 68 59 57 58 70 69 72 75 78 78 76 73 68 74 70 70 77 79 78 79 79 81 82 83 83 83 83 83 83 83 83 83 83 83 83 83 83 83 83 83 83 83 83 83 83 83
85 88 71 63 59 56 60 71 71 76 79 79 75 79 75 67 73 74 76 78 78 77 78 79 82 82 83 83 83 83 83 83 83 83 83 83 83 83 83 83 83 83 83 84 84 84 83 84 84
83 76 72 62 60 69 70 73 75 74 80 82 79 72 77 82 77 76 79 79 77 76 77 81 83 83 83 83 83 83 83 83 83 83 83 83 83 83 83 83 84 83 84 83 84 84 83 83 83
80 70 62 62 65 72 76 78 77 72 76 78 79 69 71 79 79 78 78 79 76 76 78 80 83 83 83 83 83 83 83 83 83 83 83 83 83 83 83 83 83 84 84 84 83 84 84 83 83
72 70 61 57 66 74 78 80 78 78 78 78 75 72 70 77 77 77 79 77 78 77 78 79 83 83 83 83 83 83 83 83 83 83 83 83 83 83 83 83 83 84 84 84 83 83 83 83 83
71 65 63 64 67 72 77 82 77 76 76 77 81 67 69 75 78 79 78 78 78 78 78 78 80 82 83 83 83 83 83 83 83 83 83 83 83 83 83 83 83 84 84 84 84 83 83 83 83
76 69 66 68 67 69 80 81 82 79 77 85 82 67 64 74 80 79 78 76 76 76 77 76 76 78 78 79 84 84 83 83 83 83 83 83 83 82 83 82 83 83 84 84 83 83 83 83 83
82 65 62 69 70 73 82 78 83 85 80 82 84 78 78 79 79 76 73 73 73 75 74 74 74 74 74 75 80 83 83 83 83 83 83 82 73 74 77 79 82 84 84 84 83 83 83 83 83
74 62 69 80 79 76 81 79 79 76 76 74 75 80 79 77 75 72 71 70 71 72 73 74 73 73 73 79 75 75 76 76 77 77 76 74 71 70 76 78 81 83 83 83 83 83 83 82 75
77 70 81 81 83 84 80 79 82 74 70 74 70 74 75 74 74 74 73 72 72 73 74 73 73 72 72 73 73 72 73 74 75 76 75 74 73 70 71 71 72 72 78 74 76 76 74 75 73
77 83 83 82 84 82 78 81 77 77 76 80 78 78 76 74 76 74 75 74 73 73 74 74 72 72 72 72 72 72 72 73 73 74 75 72 70 70 69 72 71 70 71 71 72 72 73 73 74
80 82 84 83 82 81 83 78 77 76 82 82 80 78 76 77 76 78 78 77 72 73 74 73 73 73 74 72 72 72 73 74 74 74 75 72 70 70 71 71 72 71 71 72 71 72 72 72 74
81 82 82 82 82 82 77 76 77 78 83 81 79 76 77 78 77 77 75 73 72 74 75 73 72 76 75 73 72 74 73 74 74 75 74 73 73 72 73 72 72 70 70 71 71 71 71 71 72
82 76 79 79 80 77 79 70 72 79 82 79 79 78 79 79 79 78 78 75 74 74 76 75 73 73 74 73 74 74 73 76 74 75 75 75 75 73 72 71 70 71 71 72 72 71 72 72 73
77 74 67 77 79 78 76 61 74 78 78 74 75 74 76 77 79 81 81 78 75 76 75 77 81 78 75 74 74 75 75 75 74 74 74 75 75 74 73 71 70 71 71 71 71 71 71 71 71
68 62 66 71 79 78 73 63 72 76 76 70 69 71 73 74 76 76 80 80 78 76 76 77 78 76 76 75 75 75 76 75 75 76 74 74 75 74 72 72 73 72 71 71 72 72 71 72 72
61 65 70 67 72 72 67 65 70 74 73 69 69 69 71 74 74 76 78 81 79 76 77 77 76 75 75 75 74 73 74 74 75 75 75 74 74 74 72 73 73 74 72 71 71 70 72 72 72
70 67 67 69 75 70 65 63 66 69 71 68 66 67 69 72 74 75 76 80 79 76 75 75 73 73 73 71 71 71 72 73 74 76 80 78 75 75 74 73 73 74 73 72 72 71 71 71 72
68 66 65 70 74 69 64 61 66 69 68 71 70 68 71 74 73 74 75 76 78 77 76 72 75 74 74 75 72 73 72 74 74 75 75 76 76 76 75 74 74 73 73 72 71 72 70 70 71
64 62 65 66 70 70 66 58 60 67 69 73 72 70 71 70 71 72 74 72 75 76 75 73 72 74 75 74 72 72 72 72 72 73 74 75 76 77 76 78 74 73 73 72 72 72 70 69 70
59 75 75 69 63 55 64 47 55 58 63 68 71 70 69 70 70 71 71 72 73 74 74 74 72 71 73 74 72 71 69 70 71 72 74 76 76 77 77 77 76 74 73 72 72 74 71 70 69
69 74 71 69 61 56 58 52 53 58 59 63 68 71 71 70 70 69 70 72 74 75 76 73 72 71 72 72 71 70 69 70 71 72 72 73 74 76 78 76 75 74 73 73 73 73 72 71 70
76 70 63 58 54 47 52 51 50 52 58 63 68 70 70 70 69 71 73 72 70 73 73 75 73 72 72 72 73 72 70 69 68 70 70 72 72 74 76 76 74 73 73 72 72 72 72 72 71
67 58 49 49 47 47 47 50 52 59 62 65 66 68 70 69 68 70 71 70 70 70 71 73 72 71 71 72 71 72 71 71 71 72 72 71 72 71 74 74 73 73 72 72 72 71 71 71 71
61 61 51 45 43 47 53 49 56 66 68 69 71 70 70 69 70 70 70 70 70 71 70 71 70 70 71 72 71 71 71 71 72 72 73 73 73 72 73 74 73 74 74 73 72 71 71 71 70
60 56 58 48 44 46 46 54 62 66 67 68 68 69 68 69 69 69 69 70 69 70 69 69 69 70 72 72 71 73 72 71 71 71 72 72 73 74 74 74 73 73 73 73 72 72 72 72 73
67 66 58 50 43 41 46 49 49 58 61 66 65 66 66 68 69 68 68 68 67 67 68 69 68 68 69 70 71 73 72 73 73 72 73 73 72 72 74 73 72 72 74 73 72 72 72 71 71
64 57 51 49 46 42 41 47 58 60 63 63 64 67 66 66 66 66 66 66 66 67 66 66 65 65 65 67 68 67 68 68 69 69 71 71 72 72 72 71 72 73 73 73 72 71 72 71 71
65 60 55 50 45 44 46 50 62 64 67 66 65 67 66 67 65 65 65 65 64 64 63 63 63 63 63 63 63 63 64 65 65 67 68 69 69 70 70 70 70 71 72 73 72 71 72 71 72
MSLP
1007.49 1007.72 1008.01 1008.26 1009.01 1009.03 1009.23 1008.98 1008.56 1008.70 1008.61 1008.62 1008.66 1009.02 1009.82 1010.28 1011.08 1012.44 1012.15 1012.39 1013.00 1013.80 1014.21 1014.66 1015.04 1015.25 1015.56 1015.82 1016.01 1016.09 1016.10 1016.16 1016.22 1016.33 1016.41 1016.46 1016.39 1016.29 1016.33 1016.50 1016.65 1016.67 1016.73 1016.75 1016.86 1016.94 1017.02 1017.20 1017.31
1007.36 1007.59 1007.92 1008.19 1009.08 1009.41 1009.13 1008.46 1008.19 1008.43 1008.35 1008.37 1008.68 1009.14 1009.69 1010.47 1011.04 1011.93 1012.53 1012.96 1013.07 1013.87 1014.37 1014.87 1015.17 1015.33 1015.68 1015.97 1016.22 1016.28 1016.30 1016.40 1016.43 1016.47 1016.51 1016.62 1016.69 1016.58 1016.51 1016.54 1016.70 1016.83 1016.97 1017.13 1017.05 1017.14 1017.28 1017.40 1017.60
1007.24 1007.19 1007.88 1008.48 1009.07 1009.08 1008.67 1008.04 1008.00 1008.20 1008.34 1008.41 1008.82 1009.19 1009.77 1010.82 1011.62 1012.12 1012.48 1013.11 1013.50 1014.23 1014.64 1015.05 1015.37 1015.55 1015.74 1015.92 1016.31 1016.45 1016.48 1016.57 1016.63 1016.64 1016.72 1016.77 1016.82 1016.83 1016.83 1016.78 1016.75 1016.93 1017.12 1017.27 1017.27 1017.34 1017.39 1017.61 1017.90
1007.07 1007.59 1008.26 1008.55 1008.75 1008.00 1007.88 1007.64 1007.82 1008.20 1008.20 1008.34 1008.78 1009.52 1010.09 1010.47 1011.23 1011.89 1012.74 1013.26 1013.89 1014.51 1014.87 1015.16 1015.48 1015.70 1015.90 1016.03 1016.23 1016.41 1016.60 1016.68 1016.71 1016.78 1016.84 1016.92 1016.93 1017.04 1017.10 1017.04 1016.94 1016.96 1017.19 1017.38 1017.47 1017.64 1017.81 1017.96 1018.19
1007.29 1007.92 1008.46 1008.44 1008.02 1007.35 1007.17 1007.16 1007.69 1007.84 1008.13 1008.54 1008.89 1010.07 1010.98 1011.59 1011.67 1012.41 1012.97 1013.48 1013.95 1014.58 1014.98 1015.30 1015.54 1015.79 1016.08 1016.25 1016.29 1016.41 1016.58 1016.71 1016.76 1016.84 1016.95 1017.07 1017.11 1017.13 1017.15 1017.24 1017.15 1017.17 1017.27 1017.48 1017.77 1017.83 1018.06 1018.18 1018.35
1007.74 1008.41 1008.84 1008.57 1007.72 1007.21 1006.97 1006.88 1007.28 1007.76 1008.26 1008.88 1009.52 1010.26 1011.62 1012.02 1012.18 1013.05 1013.39 1013.84 1014.05 1014.52 1014.99 1015.38 1015.64 1015.97 1016.22 1016.38 1016.41 1016.47 1016.57 1016.70 1016.87 1017.00 1017.13 1017.19 1017.18 1017.16 1017.19 1017.29 1017.35 1017.29 1017.41 1017.59 1017.80 1018.05 1018.22 1018.30 1018.43
1007.80 1008.56 1008.49 1008.16 1007.65 1007.15 1006.85 1006.96 1007.18 1007.63 1008.13 1008.68 1009.22 1010.66 1012.12 1012.52 1012.74 1013.33 1013.91 1014.32 1014.51 1014.87 1015.13 1015.33 1015.64 1015.94 1016.24 1016.35 1016.50 1016.49 1016.54 1016.76 1016.89 1017.06 1017.26 1017.26 1017.18 1017.23 1017.34 1017.39 1017.46 1017.51 1017.55 1017.71 1017.83 1018.03 1018.25 1018.43 1018.63
1007.24 1007.98 1008.14 1007.44 1007.30 1007.09 1006.86 1006.94 1007.21 1007.55 1008.19 1008.55 1009.16 1010.72 1012.05 1012.53 1013.01 1013.81 1014.52 1014.90 1015.18 1015.44 1015.47 1015.58 1015.72 1015.88 1016.14 1016.34 1016.39 1016.47 1016.61 1016.82 1016.92 1017.07 1017.20 1017.27 1017.19 1017.27 1017.26 1017.40 1017.49 1017.56 1017.62 1017.74 1017.86 1018.04 1018.23 1018.42 1018.52
1006.52 1007.47 1007.44 1006.81 1006.91 1006.67 1006.72 1006.85 1007.53 1007.58 1008.29 1008.76 1009.14 1009.90 1011.17 1012.52 1013.30 1014.06 1014.85 1015.43 1015.71 1015.89 1015.91 1015.86 1015.99 1016.05 1016.18 1016.35 1016.25 1016.45 1016.58 1016.64 1016.86 1017.05 1017.07 1017.10 1017.50 1017.57 1017.50 1017.46 1017.55 1017.51 1017.59 1017.66 1017.75 1017.97 1018.18 1018.30 1018.33
1006.32 1007.14 1006.26 1005.44 1005.68 1006.23 1006.38 1006.69 1007.26 1008.28 1009.07 1009.87 1010.24 1010.98 1012.00 1013.01 1013.75 1014.53 1014.98 1015.29 1015.64 1015.84 1015.97 1016.03 1016.17 1016.24 1016.32 1016.32 1016.31 1016.56 1016.72 1016.71 1016.90 1017.04 1017.14 1017.47 1017.69 1017.78 1017.72 1017.51 1017.48 1017.51 1017.59 1017.64 1017.76 1017.91 1018.09 1018.20 1018.37
1005.71 1005.81 1004.84 1004.91 1005.01 1005.52 1006.21 1006.91 1007.47 1008.46 1009.69 1009.92 1010.81 1011.82 1012.65 1013.28 1013.92 1014.08 1014.50 1014.66 1014.78 1015.52 1016.00 1016.10 1016.24 1016.39 1016.45 1016.42 1016.39 1016.70 1016.82 1016.84 1016.97 1016.96 1016.91 1017.51 1017.82 1018.00 1017.88 1017.79 1017.71 1017.75 1017.77 1017.91 1017.93 1017.96 1018.10 1018.21 1018.34
1004.93 1004.52 1004.39 1004.88 1005.08 1005.80 1006.52 1007.13 1008.01 1008.56 1009.49 1010.15 1010.70 1011.51 1012.34 1013.04 1013.28 1013.70 1014.05 1014.55 1015.12 1015.54 1015.73 1015.95 1015.98 1016.21 1016.35 1016.50 1016.42 1016.62 1016.83 1016.89 1017.05 1017.07 1017.15 1017.56 1017.70 1017.94 1018.04 1017.87 1017.73 1017.85 1017.95 1018.02 1018.12 1018.10 1018.11 1018.07 1018.03
1004.41 1004.15 1004.50 1004.89 1005.30 1006.11 1006.54 1007.29 1008.11 1009.12 1009.45 1009.95 1010.54 1011.55 1012.20 1012.56 1012.95 1013.28 1013.72 1014.23 1014.87 1015.30 1015.45 1015.77 1015.98 1015.98 1015.97 1016.40 1016.38 1016.58 1016.70 1016.80 1016.91 1016.97 1017.11 1017.37 1017.54 1017.71 1017.82 1017.75 1017.64 1017.71 1017.82 1017.95 1018.03 1018.00 1017.88 1017.85 1017.87
1004.67 1004.31 1005.16 1005.67 1005.65 1006.06 1006.72 1008.06 1008.47 1009.39 1009.52 1010.28 1010.83 1011.44 1011.86 1012.08 1012.52 1013.18 1013.75 1014.31 1014.53 1014.94 1015.30 1015.41 1015.59 1015.58 1015.92 1016.33 1016.27 1016.33 1016.49 1016.56 1016.74 1016.75 1016.82 1016.91 1017.01 1017.15 1017.50 1017.41 1017.40 1017.57 1017.68 1017.71 1017.73 1017.71 1017.57 1017.59 1017.62
1004.78 1005.29 1005.54 1006.18 1006.48 1007.14 1007.44 1008.71 1009.13 1009.39 1010.01 1010.68 1011.28 1011.57 1011.77 1011.92 1012.30 1012.36 1012.73 1013.42 1013.87 1014.35 1014.76 1015.14 1015.54 1015.60 1015.97 1016.22 1016.12 1016.13 1016.24 1016.32 1016.59 1016.50 1016.51 1016.58 1016.57 1016.76 1017.23 1017.21 1017.42 1017.34 1017.43 1017.42 1017.59 1017.63 1017.38 1017.33 1017.35
1005.38 1005.85 1006.40 1006.22 1006.64 1007.23 1007.64 1009.47 1009.81 1010.20 1010.73 1011.28 1011.55 1012.08 1012.00 1012.08 1012.00 1012.26 1012.51 1013.00 1013.51 1014.08 1014.46 1014.73 1015.16 1015.50 1015.67 1015.98 1015.90 1015.91 1015.96 1015.97 1016.11 1016.27 1016.12 1016.23 1016.31 1016.47 1016.77 1017.05 1017.30 1017.14 1017.23 1017.50 1017.45 1017.60 1017.50 1017.42 1017.43
1007.01 1006.81 1006.91 1006.94 1006.70 1007.23 1008.16 1010.13 1010.70 1010.94 1011.04 1011.66 1011.75 1011.62 1011.58 1011.55 1012.01 1012.41 1012.69 1012.78 1012.92 1013.46 1014.09 1014.62 1014.91 1014.82 1015.07 1015.37 1015.50 1015.58 1015.55 1015.67 1015.72 1015.77 1015.88 1015.85 1016.00 1016.18 1016.47 1016.50 1016.67 1016.81 1017.05 1017.15 1017.34 1017.25 1017.46 1017.35 1017.19
1007.90 1007.80 1007.23 1007.19 1007.82 1008.08 1009.34 1010.60 1011.27 1011.46 1011.39 1011.72 1011.87 1011.64 1011.59 1011.43 1010.90 1011.37 1011.90 1012.50 1013.07 1013.41 1013.84 1014.32 1014.52 1014.60 1014.75 1014.94 1015.31 1015.71 1015.85 1015.62 1015.51 1015.58 1015.56 1015.66 1015.79 1015.92 1016.09 1016.20 1016.22 1016.41 1016.79 1016.86 1016.95 1017.22 1017.15 1016.91 1016.96
1008.11 1008.21 1007.95 1007.76 1008.30 1008.89 1010.70 1011.57 1011.85 1012.19 1012.20 1012.47 1012.28 1011.82 1011.79 1011.58 1011.19 1010.93 1011.50 1012.07 1012.99 1013.74 1013.83 1014.06 1014.55 1014.73 1014.99 1015.31 1015.50 1015.69 1015.85 1015.67 1015.61 1015.33 1015.15 1015.33 1015.57 1015.78 1015.84 1015.87 1016.01 1015.98 1016.39 1016.51 1016.74 1016.98 1017.14 1017.08 1016.83
1007.98 1007.88 1007.98 1008.32 1008.87 1009.76 1011.99 1012.74 1012.82 1012.85 1012.81 1012.71 1012.50 1012.13 1011.80 1011.36 1010.88 1011.37 1011.80 1011.95 1012.25 1013.04 1013.42 1013.87 1014.07 1014.48 1014.90 1015.28 1015.33 1015.26 1015.29 1015.33 1015.31 1015.14 1015.14 1015.20 1015.27 1015.32 1015.52 1015.55 1015.76 1015.89 1016.11 1016.23 1016.38 1016.51 1016.91 1016.96 1016.81
1007.26 1007.33 1007.68 1008.21 1009.40 1010.95 1012.29 1013.88 1013.84 1013.46 1013.23 1012.92 1012.84 1012.60 1011.74 1012.00 1012.18 1012.23 1012.71 1013.25 1012.55 1013.00 1013.21 1013.57 1014.05 1014.36 1014.64 1015.04 1015.40 1015.60 1015.54 1015.51 1015.36 1015.20 1015.00 1014.91 1014.84 1014.88 1015.06 1014.81 1015.21 1015.61 1015.83 1015.96 1015.99 1016.02 1016.41 1016.66 1016.61
1006.94 1006.66 1006.97 1008.49 1009.89 1011.75 1012.58 1015.09 1014.89 1014.38 1013.62 1012.94 1012.60 1012.79 1012.62 1012.81 1012.97 1013.36 1013.36 1013.65 1013.71 1013.33 1013.41 1013.54 1014.23 1014.90 1015.05 1015.20 1015.45 1015.65 1015.78 1015.83 1015.52 1015.32 1014.94 1014.69 1014.56 1014.60 1014.69 1014.67 1014.77 1015.16 1015.45 1015.64 1015.61 1015.61 1015.85 1016.21 1016.52
1006.19 1006.21 1007.27 1008.95 1010.67 1012.29 1013.66 1014.62 1015.10 1014.64 1014.16 1013.50 1012.69 1011.31 1012.23 1013.45 1014.33 1014.49 1013.82 1013.87 1014.20 1013.48 1013.57 1013.76 1014.42 1014.97 1015.40 1015.45 1015.58 1015.78 1015.87 1015.70 1015.40 1015.32 1015.08 1014.94 1014.70 1014.38 1014.29 1014.39 1014.48 1014.86 1014.97 1015.17 1015.44 1015.52 1015.54 1015.66 1015.88
1005.86 1006.75 1008.64 1010.21 1011.89 1014.12 1014.43 1014.90 1015.34 1015.67 1014.85 1014.38 1013.56 1012.28 1013.12 1013.57 1014.39 1014.13 1014.06 1014.47 1014.16 1013.66 1013.52 1013.39 1013.54 1014.19 1015.10 1015.34 1015.37 1015.38 1015.44 1015.59 1015.46 1015.36 1015.26 1014.76 1014.61 1014.50 1014.18 1014.03 1014.18 1014.29 1014.49 1014.77 1014.99 1015.19 1015.30 1015.33 1015.48
1006.05 1007.90 1010.21 1012.11 1013.63 1014.56 1014.80 1015.22 1014.96 1014.60 1014.73 1014.62 1014.31 1014.24 1014.60 1013.61 1013.88 1014.41 1014.68 1014.97 1014.50 1014.16 1014.00 1013.47 1013.03 1013.95 1014.62 1015.29 1015.71 1015.43 1015.08 1015.38 1015.10 1015.01 1014.75 1014.59 1014.47 1014.45 1014.12 1014.05 1013.89 1014.02 1014.04 1014.27 1014.49 1014.77 1014.98 1015.17 1015.22
1006.37 1007.89 1010.29 1012.60 1014.65 1015.15 1014.99 1015.05 1014.44 1014.20 1013.78 1014.33 1014.01 1013.38 1013.95 1014.19 1014.30 1014.85 1015.36 1015.06 1015.26 1014.79 1014.27 1014.33 1014.65 1014.90 1015.09 1014.49 1015.23 1015.32 1015.16 1014.96 1015.04 1015.06 1014.51 1014.20 1014.07 1014.14 1013.93 1013.99 1013.85 1013.65 1013.48 1013.73 1014.05 1014.21 1014.35 1014.49 1014.73
1006.81 1008.51 1009.89 1012.53 1014.93 1015.63 1015.78 1014.77 1014.36 1013.92 1014.02 1014.21 1014.20 1014.10 1014.32 1014.30 1014.72 1014.67 1015.07 1015.26 1015.59 1015.14 1015.30 1015.72 1015.81 1015.69 1015.73 1015.47 1015.46 1015.11 1015.18 1015.23 1014.99 1014.59 1014.22 1013.88 1013.45 1013.29 1012.85 1013.73 1013.20 1013.44 1013.30 1013.31 1013.39 1013.55 1013.55 1013.77 1013.79
1006.23 1008.57 1010.47 1012.81 1015.16 1016.11 1015.93 1015.29 1014.20 1014.23 1014.25 1014.25 1014.44 1014.09 1014.50 1014.99 1015.07 1015.17 1015.22 1015.08 1015.27 1015.26 1015.38 1015.55 1015.78 1015.70 1015.41 1014.90 1014.93 1015.03 1015.12 1014.89 1014.57 1014.21 1013.87 1013.66 1013.59 1013.71 1013.37 1013.05 1012.43 1012.62 1012.87 1012.89 1012.95 1012.93 1012.91 1013.04 1013.01
1007.72 1009.34 1011.72 1013.76 1015.26 1016.05 1016.19 1014.58 1012.80 1013.26 1013.40 1013.78 1014.06 1014.03 1014.30 1014.89 1015.25 1015.47 1015.47 1015.48 1015.56 1015.55 1015.62 1015.76 1015.82 1015.75 1015.69 1015.50 1015.45 1015.47 1015.34 1015.01 1014.71 1014.30 1013.99 1013.71 1013.50 1013.31 1013.09 1012.84 1012.49 1012.48 1012.10 1012.04 1012.16 1012.31 1012.62 1012.91 1012.69
1007.97 1009.77 1011.27 1013.49 1015.55 1015.74 1015.13 1013.51 1012.42 1012.36 1012.70 1013.05 1013.53 1013.90 1014.27 1014.72 1015.29 1015.73 1015.98 1016.05 1016.01 1016.11 1016.20 1016.35 1016.37 1016.43 1016.37 1016.11 1015.82 1015.73 1015.57 1015.29 1014.96 1014.49 1014.05 1013.66 1013.44 1013.14 1012.83 1012.61 1012.29 1012.07 1011.82 1011.54 1011.92 1012.00 1012.10 1012.47 1012.33
Wind_Speed
3 6 2 2 5 5 1 1 2 4 2 2 7 4 6 3 4 4 9 12 17 14 13 12 15 15 14 12 12 12 13 13 13 12 11 11 11 11 11 12 10 11 11 12 9 8 10 8 8
3 5 1 1 6 3 4 2 6 2 3 5 8 3 3 3 5 11 7 13 18 14 12 11 15 15 15 13 12 12 12 12 12 11 11 9 9 9 9 10 11 9 11 9 10 9 9 9 10
3 2 3 4 3 2 1 1 6 7 5 1 4 2 3 4 11 12 12 17 16 12 9 11 16 15 15 14 13 12 12 11 11 10 10 9 8 6 9 9 10 9 8 10 9 10 8 11 9
2 4 4 4 1 1 4 4 8 8 1 2 5 6 6 2 14 10 18 17 14 10 8 14 17 17 15 15 14 12 11 11 11 10 9 8 7 7 7 8 10 9 10 10 10 9 10 9 9
3 3 4 3 1 1 4 7 11 7 5 3 3 3 7 4 14 19 19 16 16 11 10 12 16 16 15 14 14 12 11 10 10 9 8 7 7 6 8 8 8 9 9 9 10 10 9 9 9
4 3 4 1 1 2 5 9 8 3 7 11 9 6 3 14 20 15 16 14 13 14 11 10 16 16 16 14 13 12 12 11 9 8 8 7 7 6 5 7 7 8 9 9 9 9 9 10 9
2 3 4 1 2 4 3 7 7 9 9 7 7 5 4 11 14 14 13 11 11 10 10 9 10 13 16 15 13 13 12 11 9 8 7 6 6 6 4 5 4 6 8 8 8 8 8 7 7
3 4 1 3 2 4 4 4 7 10 3 9 10 6 7 12 15 13 11 9 7 6 6 6 6 7 7 7 15 14 12 10 9 8 8 7 6 5 5 4 6 6 7 7 7 6 6 6 6
4 4 3 4 6 6 7 5 2 5 9 1 3 9 15 17 17 14 11 7 6 5 5 4 5 5 6 6 8 12 13 12 10 8 9 7 3 1 1 3 7 7 7 8 7 6 7 7 7
5 3 8 6 6 5 7 6 6 5 9 11 14 18 19 19 17 15 12 12 10 9 7 6 5 6 6 6 5 4 4 3 3 4 5 3 3 2 2 4 3 6 5 6 6 6 7 7 2
3 5 5 2 7 9 9 5 4 12 4 12 20 19 19 17 14 16 15 15 16 11 8 8 7 5 5 4 3 2 2 3 3 6 3 3 2 2 2 2 1 0 3 1 2 2 2 3 3
4 7 6 3 7 7 7 7 9 6 5 18 21 21 18 17 17 13 14 12 10 11 11 10 7 7 6 3 4 4 3 3 3 3 2 2 2 2 3 3 3 2 1 3 3 2 3 5 5
5 2 6 6 10 6 10 6 8 8 12 20 20 19 19 17 13 12 11 10 7 11 11 8 8 10 8 5 4 4 4 3 4 4 5 4 4 4 2 2 2 2 2 3 3 3 3 4 5
5 1 11 4 8 7 12 9 5 7 13 16 18 17 16 16 14 9 8 8 9 9 10 8 9 10 6 6 6 5 4 4 4 4 4 6 5 4 4 3 1 2 3 3 3 2 2 3 3
3 5 6 4 2 6 10 5 4 12 12 11 14 12 13 12 13 16 15 12 12 8 10 12 10 7 6 6 6 4 4 5 4 4 6 6 6 4 4 3 2 3 4 2 2 3 3 3 3
6 5 4 4 6 6 5 1 5 7 11 8 9 6 5 4 13 12 14 12 12 11 13 11 11 10 7 6 5 4 4 4 4 4 5 7 6 5 5 4 3 4 3 3 2 3 3 1 3
7 1 3 3 4 5 5 3 1 3 7 8 4 7 7 6 7 2 6 11 13 11 11 12 10 11 10 7 5 5 5 4 4 4 4 7 7 6 5 4 4 4 3 3 3 2 3 3 3
4 5 4 5 3 8 10 4 2 2 5 6 5 6 5 4 9 8 7 8 10 9 10 10 8 7 7 5 3 2 3 3 3 4 5 6 5 6 5 4 5 4 3 3 2 2 3 2 1
3 3 7 3 7 7 7 5 3 2 3 3 5 7 8 7 6 6 4 7 10 7 9 8 8 6 4 2 2 1 3 2 2 4 6 6 5 6 7 4 4 3 3 3 4 3 3 3 1
3 7 4 4 4 7 6 5 6 5 2 4 6 8 8 6 9 6 2 5 12 12 10 8 9 8 6 3 2 2 3 3 2 2 4 6 7 7 6 6 5 5 3 3 4 4 2 2 3
2 6 5 7 6 7 8 5 6 4 5 5 3 9 11 8 9 10 8 6 7 11 11 8 7 6 6 6 2 2 2 2 2 2 2 5 7 7 7 8 5 5 4 4 4 4 5 2 1
6 9 6 11 5 5 2 2 5 7 6 3 5 5 10 8 9 11 6 3 3 3 5 4 3 3 1 4 3 5 4 4 3 3 3 4 6 8 6 6 6 6 4 4 4 3 3 3 3
11 4 8 5 7 6 8 7 7 4 5 6 10 2 7 4 7 6 5 6 4 6 4 6 5 3 2 2 3 2 4 3 2 3 4 6 5 6 7 7 6 6 4 4 5 4 5 3 3
2 6 10 6 5 5 4 4 6 1 4 4 3 18 16 12 1 2 2 5 5 4 4 4 8 7 2 7 5 5 5 6 5 5 5 4 4 4 6 6 6 6 5 5 5 6 6 5 3
5 8 4 5 6 4 2 3 6 6 6 5 15 8 8 4 8 3 4 4 6 6 5 6 8 6 7 7 4 5 6 6 8 10 6 5 4 3 6 5 6 5 6 5 5 5 5 5 4
2 10 8 5 4 2 3 2 3 4 6 7 7 15 10 8 9 9 8 7 5 9 9 10 5 2 4 13 8 5 11 7 8 10 8 6 5 4 6 6 5 7 6 5 5 5 6 6 5
3 3 4 10 3 4 4 5 4 6 7 6 4 10 10 11 9 9 7 6 4 8 8 7 5 4 5 6 4 4 3 5 6 9 9 7 4 5 12 9 7 7 7 6 6 5 7 6 6
5 5 4 5 4 2 3 5 6 8 10 8 6 10 10 7 9 7 6 7 6 7 6 7 6 6 5 7 7 4 4 5 5 5 5 5 4 6 10 9 6 6 6 6 6 5 5 6 5
3 4 9 8 4 6 0 8 6 11 14 12 8 10 10 8 7 5 5 5 6 6 6 6 7 8 8 7 6 6 6 7 7 6 6 6 5 5 4 6 7 6 7 6 6 6 5 7 6
4 5 5 7 4 1 5 8 3 10 12 12 10 9 8 9 7 6 5 5 6 6 7 7 7 7 6 6 6 6 6 6 7 8 9 8 6 6 6 5 5 5 6 6 6 6 6 8 8
Wind_Direction
163 177 181 62 49 63 104 224 104 142 233 18 115 149 172 91 169 204 133 129 136 143 150 159 151 146 139 133 129 123 112 107 104 101 96 96 98 101 108 111 104 105 101 117 123 123 123 121 124
194 178 104 115 77 67 305 207 220 130 98 133 71 68 48 85 68 118 100 140 138 143 150 157 154 149 143 143 141 134 125 120 118 116 111 106 105 109 112 114 118 113 114 118 118 120 125 124 126
235 232 71 80 97 156 129 307 99 131 135 120 99 29 78 96 113 134 127 139 135 143 147 158 157 150 151 150 147 143 136 134 131 126 121 116 109 114 121 124 120 126 118 123 121 122 121 127 134
82 12 28 76 275 316 115 187 123 150 107 123 115 75 68 164 142 135 138 136 134 141 144 163 161 154 159 154 157 151 149 147 144 137 129 120 108 103 115 131 132 129 122 124 129 123 127 129 131
42 48 45 64 58 248 123 131 151 162 120 137 79 70 88 81 108 132 140 141 143 144 153 157 162 160 163 163 161 159 161 162 157 150 138 126 111 93 119 132 137 131 128 130 142 139 136 134 150
22 91 50 26 307 342 73 142 164 139 111 104 98 90 79 132 128 140 142 146 146 148 152 160 164 167 167 172 169 169 173 176 170 162 151 141 132 122 123 142 149 143 142 141 139 139 146 152 157
108 86 181 173 210 61 66 135 153 137 131 115 128 87 88 143 131 137 135 138 145 150 150 155 164 173 174 179 179 182 187 186 183 179 171 163 158 147 144 160 164 160 157 156 157 158 159 162 168
144 105 251 188 214 98 112 141 127 137 114 109 138 142 161 144 130 123 123 127 130 142 151 151 155 166 168 180 184 190 195 198 200 198 192 187 183 166 172 167 194 186 176 173 175 181 189 195 202
119 38 302 208 163 169 175 125 126 76 129 78 201 131 130 138 125 119 119 122 130 140 142 145 152 163 164 172 195 193 201 210 209 213 214 201 145 105 175 186 216 190 193 197 193 205 215 216 227
120 119 214 190 150 136 146 122 121 94 99 81 81 108 123 131 135 134 154 160 167 167 171 175 171 185 177 184 215 180 215 215 214 227 237 139 168 183 242 207 179 206 202 213 218 223 232 248 223
177 211 172 36 130 135 131 112 95 117 84 133 129 133 141 143 155 164 170 178 178 169 175 186 180 194 201 195 201 185 207 224 203 228 216 128 174 247 230 242 249 58 248 254 287 276 296 249 237
194 227 127 169 130 110 128 113 118 98 137 137 140 147 153 155 172 175 175 177 172 175 186 189 187 189 208 190 198 198 206 224 225 229 193 154 180 256 245 223 198 191 225 235 235 215 245 252 242
215 114 92 99 98 96 115 102 104 105 139 143 146 153 167 169 179 183 177 172 160 182 191 193 189 200 199 183 208 204 218 213 221 221 206 173 189 229 224 243 217 208 201 222 244 228 235 241 236
278 157 102 98 105 127 111 108 80 160 151 148 155 161 173 178 174 166 170 172 181 179 202 177 199 213 182 190 208 211 217 221 201 223 211 196 195 210 203 207 221 251 231 225 230 225 243 246 251
68 72 46 66 146 97 107 39 109 162 152 159 161 172 178 192 170 187 178 179 184 186 199 187 196 199 187 195 211 217 224 233 208 222 198 206 215 202 202 191 197 210 223 234 244 247 251 240 252
49 61 104 263 169 181 84 136 154 136 133 122 88 82 91 207 198 193 183 181 180 175 190 181 188 196 204 193 203 225 215 236 209 219 202 193 212 183 206 202 197 224 241 179 222 262 253 240 217
4 244 175 131 298 130 83 120 294 91 125 114 136 128 137 128 125 118 213 191 179 176 177 187 197 180 188 204 198 208 217 225 227 192 196 196 196 194 209 215 209 201 219 225 216 240 217 230 228
332 346 298 148 34 60 86 75 61 135 145 156 160 190 169 164 162 159 178 188 187 173 185 186 194 191 190 192 192 183 232 248 230 209 206 196 202 197 203 228 237 196 185 218 203 236 245 275 250
255 253 269 92 130 81 62 69 350 123 150 130 232 228 186 191 181 148 135 177 162 183 191 189 184 207 170 162 173 218 236 199 228 231 227 208 206 211 208 220 221 215 187 191 195 189 207 271 245
180 255 231 49 71 80 106 50 344 31 289 280 240 277 270 209 179 143 162 193 175 181 196 193 199 189 194 202 189 182 170 238 218 228 229 218 210 213 214 215 210 200 176 181 197 189 185 237 188
23 188 194 156 112 81 130 46 345 330 319 311 230 296 290 17 7 10 4 314 166 177 200 200 211 205 197 179 122 35 16 346 333 284 236 220 210 219 221 219 205 197 195 196 190 170 182 209 249
302 214 186 134 110 128 354 143 319 310 346 335 328 281 309 7 27 14 5 359 299 179 162 194 169 241 241 167 180 177 198 214 219 245 267 245 215 230 240 250 234 214 205 213 213 187 185 156 204
240 186 136 102 92 101 355 92 259 290 350 356 300 207 310 321 53 24 11 29 340 82 179 155 144 99 337 41 55 259 281 299 301 266 257 263 257 234 233 223 225 231 209 218 202 211 201 191 179
88 88 40 55 79 58 251 132 268 249 248 312 20 325 308 285 197 29 12 24 1 51 116 187 166 154 100 238 226 217 244 273 280 274 268 254 239 253 250 235 213 226 228 219 223 211 217 215 216
91 59 357 6 16 202 61 94 228 216 231 221 148 222 273 339 153 171 56 31 38 26 358 253 199 133 182 292 270 278 271 252 259 260 246 246 248 251 255 240 240 225 224 219 209 226 227 223 205
188 147 153 212 187 254 19 236 166 171 115 186 192 139 115 87 91 108 95 61 51 58 42 57 58 8 198 205 211 223 249 250 262 261 258 253 240 237 253 241 240 244 246 229 212 202 211 204 222
165 69 167 104 50 83 283 272 293 181 140 191 151 110 99 99 100 101 86 87 61 62 61 79 93 102 115 170 164 136 246 248 246 256 259 264 249 235 280 255 224 230 243 235 219 213 225 203 223
130 147 73 26 124 228 278 279 209 147 155 182 165 125 122 121 117 111 108 88 61 66 65 52 52 59 45 42 42 31 334 339 324 312 307 309 291 253 257 252 236 235 237 239 229 231 224 204 229
68 62 54 107 106 146 304 269 198 159 170 168 169 150 143 145 140 127 101 81 81 65 52 46 36 31 28 28 24 25 9 357 351 351 331 328 330 332 313 277 261 227 226 224 215 228 242 236 240
88 103 119 115 224 229 144 267 352 160 155 152 163 166 160 143 140 132 117 117 93 72 47 36 31 35 16 6 16 15 4 355 355 350 343 336 320 317 318 317 310 263 242 222 230 224 214 228 240